DW9234 Weather Reports


Display with metric or nautical units.
time (UTC)temp
F
wind
direction
speed
MPH
gust
MPH
rain 1hr
in
rain 24hr
in
rain mn
in
humidity
%
barometer
mb
20260905200005 81 71 0.0 2.0 0.00 0.00 0.01 51 1011.4
20260905195004 81 290 0.0 2.0 0.00 0.00 0.01 51 1011.5
20260905194005 80 261 0.0 0.0 0.00 0.00 0.01 52 1011.7
20260905192005 80 250 0.0 4.0 0.00 0.00 0.01 51 1012.0
20260905191004 81 300 0.0 2.0 0.00 0.00 0.01 52 1012.2
20260905190004 80 231 0.0 2.0 0.00 0.00 0.01 53 1012.3
20260905185005 80 355 0.0 0.0 0.00 0.00 0.01 51 1012.3
20260905184005 80 279 0.0 0.0 0.00 0.00 0.01 53 1012.3
20260905183004 80 69 0.0 2.0 0.00 0.00 0.01 53 1012.3
20260905182004 80 268 0.0 0.0 0.00 0.00 0.01 54 1012.4
20260905181005 79 250 0.0 1.0 0.00 0.00 0.01 53 1012.4
20260905180004 80 315 0.0 0.0 0.00 0.00 0.01 55 1012.5
20260905175004 80 105 0.0 1.0 0.00 0.00 0.01 53 1012.5
20260905174004 80 52 0.0 5.0 0.00 0.00 0.01 54 1012.5
20260905173005 78 27 0.0 0.0 0.00 0.00 0.01 57 1012.7
20260905172005 78 5 0.0 0.0 0.00 0.00 0.01 60 1012.7
20260905171004 78 271 0.0 0.0 0.00 0.00 0.01 61 1012.8
20260905165005 77 224 0.0 0.0 0.00 0.00 0.01 59 1013.1
20260905164005 77 145 0.0 0.0 0.00 0.00 0.01 59 1013.0
20260905162004 77 316 0.0 2.0 0.00 0.00 0.01 59 1013.2
20260905161004 77 259 7.0 7.0 0.00 0.00 0.01 59 1013.3
20260905160004 77 332 0.0 2.0 0.00 0.00 0.01 61 1013.4
20260905154004 76 317 2.0 3.0 0.00 0.00 0.01 61 1013.5
20260905151004 75 260 0.0 2.0 0.00 0.00 0.01 67 1013.4
20260905150004 72 242 0.0 4.0 0.00 0.00 0.01 71 1013.4
20260905145004 72 203 0.0 0.0 0.00 0.00 0.01 78 1013.4
20260905144004 71 203 0.0 0.0 0.00 0.00 0.01 82 1013.3
20260905143005 71 203 0.0 0.0 0.00 0.00 0.01 83 1013.1
20260905142004 70 203 0.0 0.0 0.00 0.00 0.01 84 1013.2
20260905141004 70 203 0.0 0.0 0.00 0.00 0.01 85 1013.2
20260905140005 70 203 0.0 0.0 0.00 0.00 0.01 85 1013.3
20260905135005 70 203 0.0 0.0 0.00 0.00 0.01 85 1013.1
20260905134004 70 203 0.0 0.0 0.00 0.00 0.01 85 1013.2
20260905133005 70 203 0.0 0.0 0.00 0.00 0.01 86 1013.1
20260905132005 70 203 0.0 0.0 0.00 0.00 0.01 86 1013.1
20260905131004 70 203 0.0 0.0 0.00 0.00 0.01 85 1012.9
20260905130004 70 203 0.0 0.0 0.00 0.00 0.01 85 1012.9
20260905125004 69 203 0.0 0.0 0.00 0.00 0.01 85 1012.9
20260905124005 69 203 0.0 0.0 0.00 0.00 0.01 84 1012.9
20260905123004 69 203 0.0 0.0 0.00 0.00 0.01 84 1013.0
20260905122004 69 203 0.0 0.0 0.00 0.00 0.01 84 1013.0
20260905121004 69 203 0.0 0.0 0.00 0.00 0.01 84 1013.0
20260905120004 69 203 0.0 0.0 0.00 0.00 0.01 83 1012.9
20260905115005 69 203 0.0 0.0 0.00 0.00 0.01 83 1012.7
20260905114004 70 203 0.0 0.0 0.00 0.00 0.01 83 1012.8
20260905113005 70 203 0.0 0.0 0.00 0.00 0.01 83 1012.6
20260905112004 70 203 0.0 0.0 0.00 0.00 0.01 83 1012.4
20260905105005 70 203 0.0 0.0 0.00 0.00 0.01 83 1012.1
20260905104004 71 203 0.0 0.0 0.00 0.00 0.01 83 1012.0
20260905103005 71 203 0.0 0.0 0.00 0.00 0.01 83 1011.9
20260905102004 71 203 0.0 0.0 0.00 0.00 0.01 83 1011.6
20260905100005 72 203 0.0 0.0 0.00 0.00 0.01 83 1011.6
20260905095005 72 203 0.0 0.0 0.00 0.00 0.01 83 1011.6
20260905094005 72 203 0.0 0.0 0.00 0.00 0.01 83 1011.7
20260905093004 72 203 0.0 0.0 0.00 0.00 0.01 83 1011.8
20260905092005 72 203 0.0 0.0 0.00 0.00 0.01 82 1011.7
20260905091005 72 203 0.0 0.0 0.00 0.00 0.01 82 1011.6
20260905090004 72 203 0.0 0.0 0.00 0.00 0.01 82 1011.7
20260905085005 72 203 0.0 0.0 0.00 0.00 0.01 81 1011.6
20260905084004 72 203 0.0 0.0 0.00 0.00 0.01 81 1011.7
20260905083005 72 203 0.0 0.0 0.00 0.00 0.01 81 1011.6
20260905082005 72 203 0.0 0.0 0.00 0.00 0.01 81 1011.5
20260905081004 72 203 0.0 0.0 0.00 0.00 0.01 80 1011.5
20260905080004 73 203 0.0 0.0 0.00 0.00 0.01 80 1011.6
20260905074005 73 202 0.0 0.0 0.00 0.00 0.01 80 1011.6
20260905072004 73 202 0.0 0.0 0.00 0.00 0.01 80 1011.6
20260905071004 73 202 0.0 0.0 0.00 0.00 0.01 80 1011.6
20260905070004 73 202 0.0 0.0 0.00 0.00 0.00 80 1011.6
20260905065004 73 202 0.0 0.0 0.00 0.00 0.00 79 1011.7
20260905063004 73 202 0.0 0.0 0.00 0.00 0.00 79 1011.7
20260905062005 73 202 0.0 0.0 0.00 0.00 0.00 79 1011.8
20260905061004 74 202 0.0 0.0 0.00 0.00 0.00 79 1011.8
20260905060004 74 202 0.0 0.0 0.00 0.00 0.00 78 1011.9
20260905055004 74 202 0.0 0.0 0.00 0.00 0.00 78 1012.1
20260905054004 74 202 0.0 0.0 0.00 0.00 0.00 78 1012.1
20260905053004 74 202 0.0 0.0 0.00 0.00 0.00 77 1012.0
20260905052004 74 202 0.0 0.0 0.00 0.00 0.00 77 1012.2
20260905051005 74 202 0.0 0.0 0.00 0.00 0.00 77 1012.1
20260905050004 74 202 0.0 0.0 0.00 0.00 0.00 76 1012.2
20260905045004 74 202 0.0 0.0 0.00 0.00 0.00 76 1012.2
20260905044004 74 201 0.0 0.0 0.00 0.00 0.00 76 1012.3
20260905043004 74 201 0.0 0.0 0.00 0.00 0.00 74 1012.4
20260905042004 75 200 0.0 2.0 0.00 0.00 0.00 73 1012.5
20260905041005 75 202 0.0 2.0 0.00 0.00 0.00 73 1012.7
20260905040005 76 175 1.0 5.0 0.00 0.00 0.57 72 1012.7
20260905034005 78 279 1.0 5.0 0.00 0.00 0.10 74 1013.0
20260905033004 78 290 0.0 0.0 0.00 0.00 0.01 73 1012.7
20260905032005 78 289 0.0 0.0 0.00 0.00 0.00 72 1012.3
20260905031004 78 288 0.0 0.0 0.00 0.00 0.00 72 1012.4
20260905030004 78 301 0.0 0.0 0.00 0.00 0.00 72 1012.4
20260905025005 78 269 0.0 0.0 0.00 0.00 0.00 72 1012.5
20260905024004 78 274 0.0 0.0 0.00 0.00 0.00 72 1012.4
20260905023005 78 269 0.0 0.0 0.00 0.00 0.00 72 1012.5
20260905022005 78 269 0.0 0.0 0.00 0.00 0.00 71 1012.4
20260905021005 78 268 0.0 0.0 0.00 0.00 0.00 71 1012.4
20260905020004 78 268 0.0 0.0 0.00 0.00 0.00 71 1012.3
20260905014004 78 268 0.0 0.0 0.00 0.00 0.00 71 1012.3
20260905013005 78 268 0.0 0.0 0.00 0.00 0.00 71 1012.3
20260905010004 78 268 0.0 0.0 0.00 0.00 0.00 70 1012.5
20260905005004 78 268 0.0 0.0 0.00 0.00 0.00 70 1012.4
20260905004004 78 268 0.0 0.0 0.00 0.00 0.00 70 1012.3
20260905003004 79 268 0.0 0.0 0.00 0.00 0.00 69 1012.4
20260905001004 79 268 0.0 0.0 0.00 0.00 0.00 68 1012.3
20260905000005 79 268 0.0 0.0 0.00 0.00 0.00 68 1012.3
20260904234004 80 268 0.0 0.0 0.00 0.00 0.00 67 1012.4
20260904225004 82 268 0.0 0.0 0.00 0.00 0.00 65 1012.4
20260904224004 82 268 0.0 0.0 0.00 0.00 0.00 65 1012.5
20260904223004 82 268 0.0 0.0 0.00 0.00 0.00 64 1012.5
20260904222004 82 269 0.0 0.0 0.00 0.00 0.00 64 1012.5
20260904221004 83 269 0.0 0.0 0.00 0.00 0.00 63 1012.6
20260904220004 83 269 0.0 0.0 0.00 0.00 0.00 63 1012.4
20260904215004 84 269 0.0 0.0 0.00 0.00 0.00 62 1012.7
20260904214004 84 267 0.0 0.0 0.00 0.00 0.00 62 1012.8
20260904213004 84 267 0.0 0.0 0.00 0.00 0.00 61 1012.8
20260904212005 84 256 0.0 2.0 0.00 0.00 0.00 58 1012.9
20260904211004 84 242 0.0 2.0 0.00 0.00 0.00 58 1013.1
20260904205004 85 236 0.0 0.0 0.00 0.00 0.00 58 1013.1
20260904204004 86 257 2.0 5.0 0.00 0.00 0.00 57 1012.9
20260904203005 86 267 0.0 0.0 0.00 0.00 0.00 57 1012.8
20260904202004 87 267 0.0 0.0 0.00 0.00 0.00 57 1012.7
20260904201004 87 275 0.0 4.0 0.00 0.00 0.00 54 1012.8